SL-12 R/B(2)

Satellite information

Favourite Embed

Satellite Type and Status

ROCKET BODYIN ORBIT

Key statistics

Satellite SL-12 R/B(2) at a glance.

Uptime

12107

Days in orbit

Revolutions

≈ 1.0

Per day

Orbit

OTHER

Other

Inclination

14.8

Latest

Satellite identification and parameters

Extended collection of information and parameters for SL-12 R/B(2).

Object identification

Identified? True

Debris? False

Object name: SL-12 R/B(2)

International designator: 1992-043D

Object number (NORAD): 22044

Object ID (CCSDS): 22044

Country: COMMONWEALTH OF INDEPENDENT STATES (CIS)

Current information (Y/N): Y

RCS size: LARGE

Orbital parameters

Period: 1471.919 minutes

Inclination: 14.7674 deg

SMA: 42863.016 km

Apoapsis: 36597.765 km

Periapsis: 36371.998 km

RAAN: 348.5656 deg

Eccentricy: 0.00263358

Argument of periapsis: 191.2893 deg

Mean anomaly: 176.2046 deg

Mean motion: 0.9783149 rev/day

Mean motion (dot): -0.00000143 rev/day2

B* drag term: 0.0 1/REarth

Two-line elements (TLE)

Creation date: Sept. 6, 2025, 2:09 a.m.

Reference frame: TEME

Reference center: EARTH

Epoch: Sept. 5, 2025, 3:44 a.m. UTC

TLE line 0: 0 SL-12 R/B(2)

TLE line 1: 1 22044U 92043D 25248.15580228 -.00000143 00000-0 00000-0 0 9991

TLE line 2: 2 22044 14.7674 348.5656 0026336 191.2893 176.2046 0.97831490116772

Live tracking on map

Real-time ground track for satellite SL-12 R/B(2).

In-orbit conjunctions

A list of the most updated potential collisions computed for object SL-12 R/B(2).

Target Orbit TCA Probability of collision Miss distance Type
INMARSAT 2-F4 OTHER 2025-09-08 13:30:05 TBA 1336.0 (m) PAYLOAD

Associated space launch

Geostationary communications satellite

SL-12 R/B(2) was lifted into orbit during the mission ‘Proton | Gorizont 26’, on board a Proton space rocket.

The launch took place on July 14, 1992, 10:02 p.m. from 81/23 (81L).

For more information about the launch, click the button.

Launch to space Proton | Gorizont 26
Proton | Gorizont 26

Agency: N/A

Status: Launch Successful

Launch date: July 14, 1992, 10:02 p.m. UTC

Rocket: Proton

Launch pad: 81/23 (81L)

Location: Baikonur Cosmodrome, Republic of Kazakhstan

...

Latest news about this satellite

There are no fresh news available about this satellite. Check back as we update our databases every day.


Newsletter sign-up

Weekly statistics, charts and insights to help you stay on top of the space industry.